[[{"header":{"parameterUnit":"m.s-1","parameterCategory":1,"la1":30.2991,"la2":30.254,"lo1":-89.0895,"lo2":-89.0444,"dy":0.0017,"dx":0.0017,"nx":28,"ny":28,"refTime":"2024-08-16T03:00:00:Z","depth":0,"parameterNumber":2,"parameterNumberName":"U-component_of_WINDS"},"data":[0,0,0,0,0,0,0,0,0,0,0,0,0,0,0,0,0,0,0,0,0,0,0,0,0,0,0,0,0,0,0,0,0,0,0,0,0,0,0,0,0,0,0,0,0,0,0,0,0,0,0,0,0,0,0,0,0,0,-1.0075,-1.0075,0,-1.0031,-1.003,-1.003,-0.998,-0.9979,-0.9979,-0.9978,-0.9933,-0.9933,-0.9932,0,0,0,0,0,0,0,0,0,0,0,0,0,-1.0118,-1.0117,-1.0075,-1.0075,-1.0074,-1.0031,-1.003,-1.003,-0.998,-0.9979,-0.9979,-0.9978,-0.9934,-0.9933,-0.9932,0,0,0,0,0,0,0,0,0,0,0,0,0,-1.0089,-1.0117,-1.0075,-1.0044,-1.0041,-1.0031,-1.003,-1.003,-0.9981,-0.9979,-0.9978,-0.9977,-0.9934,-0.9933,-0.9932,-0.995,0,0,-0.993,-0.993,0,0,0,0,0,0,0,0,-1.0091,-1.0088,-1.0049,-1.0046,-1.0043,-1.001,-1.0029,-1.0003,-0.9981,-1.0004,-0.9978,-0.9977,-0.996,-0.9957,-0.9951,-0.9948,-0.9946,-0.993,-0.993,-0.9929,-0.9929,0,0,0,0,0,0,0,-1.0093,-1.0089,-1.0058,-1.0049,-1.0045,-1.0033,-1.0028,-1.0024,-0.9988,-1.0001,-0.9998,-0.9993,-0.9958,-0.9952,-0.995,-0.9945,-0.993,-0.9929,-0.9929,-0.9929,-0.9955,-0.9956,0,0,0,0,0,0,-1.0099,-1.0091,-1.0059,-1.0056,-1.0064,-1.0033,-1.0027,-1.0022,-0.9988,-0.9982,-0.9994,-0.9991,-0.9954,-0.9951,-0.9948,-0.9967,-0.9929,-0.9929,-0.9928,-0.9954,-0.9955,-0.9956,0,0,0,0,0,0,-1.0101,-1.0097,-1.0061,-1.0073,-1.0067,-1.0033,-1.0028,-1.0021,-1.0015,-0.9983,-0.9976,-0.9995,-0.9953,-0.9949,-0.995,-0.9964,-0.9928,-0.9928,-0.9953,-0.9954,-0.9956,-1.0004,0,0,0,0,0,0,-1.0102,-1.0098,-1.0104,-1.0073,-1.0067,-1.0063,-1.0029,-1.0021,-1.0014,-1.001,-0.9981,-0.9976,-0.9952,-0.9951,-0.9949,-0.9963,-0.9927,-0.9951,-0.9953,-0.9955,-1.0001,-1.0007,-1.0013,0,0,0,0,0,-1.0104,-1.0119,-1.0104,-1.0101,-1.0073,-1.0064,-1.0061,-1.0032,-1.0015,-1.0021,-1.0001,-0.9977,-0.9963,-0.9952,-0.9949,-0.9963,-0.995,-0.9953,-0.9955,-0.9999,-1.0006,-1.0013,0,0,0,0,0,0,-1.0152,-1.0114,-1.0098,-1.0103,-1.0088,-1.0056,-1.0062,-1.0041,-1.003,-1.0026,-0.9992,-0.9986,-0.9991,-0.9977,-0.9965,-0.9978,-0.9953,-0.9955,-0.9987,-0.9994,-1.0,-1.0003,-0.9926,0,0,0,0,0,-1.0163,-1.0159,-1.0126,-1.0135,-1.0127,-1.0097,-1.0091,-1.0071,-1.0053,-1.0046,-1.0025,-1.0009,-1.0001,-0.9997,-0.9988,-0.9999,-0.9993,-1.0007,-1.0013,-1.0018,-1.002,-1.0025,-1.0032,-0.9965,-0.9965,-0.9965,0,0,-1.0187,-1.0166,-1.0165,-1.0144,-1.0129,-1.0125,-1.0091,-1.0089,-1.0086,-1.0046,-1.0046,-1.003,-1.001,-1.0016,-1.0018,-1.0004,-1.0037,-1.0021,-1.0025,-1.0025,-1.0029,-1.0035,-1.0041,-0.9967,-0.9966,-0.9966,0,0,-1.0228,-1.0211,-1.0216,-1.0202,-1.018,-1.016,-1.0161,-1.0133,-1.0121,-1.012,-1.0091,-1.0087,-1.0074,-1.0061,-1.0053,-1.009,-1.0068,-1.0088,-1.0118,-1.0124,-1.0129,-1.0134,-1.0147,-1.0152,-1.009,-1.009,-1.0091,0,-1.026,-1.0253,-1.0222,-1.0221,-1.0213,-1.0177,-1.0183,-1.0171,-1.0147,-1.0143,-1.0128,-1.0112,-1.0095,-1.0099,-1.0108,-1.0102,-1.0103,-1.0091,-1.0131,-1.0135,-1.0139,-1.0151,-1.0157,-1.0093,-1.0093,-1.0092,-1.0092,0,-1.0293,-1.0289,-1.0296,-1.0274,-1.0267,-1.027,-1.024,-1.0236,-1.0217,-1.0198,-1.0198,-1.0178,-1.0164,-1.0164,-1.0144,-1.0164,-1.0157,-1.0137,-1.0111,-1.0148,-1.016,-1.0164,-1.0097,-1.0096,-1.0095,-1.0094,0,0,-1.0363,-1.0324,-1.0328,-1.0318,-1.0291,-1.0287,-1.0289,-1.0275,-1.0273,-1.0259,-1.0259,-1.025,-1.0231,-1.0222,-1.0201,-1.0207,-1.0238,-1.0186,-1.0185,-1.0197,-1.0259,-1.0274,-1.028,-1.0223,-1.0224,-1.0224,-1.0261,0,-1.0399,-1.0399,-1.0372,-1.0379,-1.0375,-1.0341,-1.0343,-1.0327,-1.031,-1.0304,-1.0285,-1.0279,-1.0255,-1.025,-1.0253,-1.0233,-1.025,-1.023,-1.0224,-1.0224,-1.023,-1.0286,-1.0302,-1.0337,-1.0265,-1.0266,-1.0266,0,-1.0441,-1.0429,-1.0436,-1.041,-1.0407,-1.0409,-1.0395,-1.039,-1.0372,-1.0359,-1.0349,-1.0326,-1.0326,-1.0302,-1.0302,-1.0289,-1.0285,-1.0275,-1.0276,-1.0274,-1.0247,-1.0286,-1.0348,-1.0354,-1.0273,-1.0272,-1.0272,0,-1.0492,-1.0477,-1.048,-1.0472,-1.0442,-1.0444,-1.0431,-1.0412,-1.0406,-1.0394,-1.039,-1.0378,-1.0372,-1.0363,-1.0338,-1.0322,-1.0341,-1.0315,-1.0331,-1.0332,-1.0336,-1.0336,-1.0398,-1.0333,-1.0333,-1.0333,-1.0333,0,-1.0536,-1.0541,-1.0502,-1.0504,-1.051,-1.0479,-1.0486,-1.047,-1.0453,-1.0451,-1.0421,-1.0421,-1.0387,-1.0382,-1.0362,-1.0366,-1.0363,-1.0353,-1.0348,-1.0356,-1.0357,-1.0353,-1.035,-1.0335,-1.0334,-1.0334,-1.0334,0,-1.0593,-1.0567,-1.0568,-1.0539,-1.0532,-1.0537,-1.0513,-1.0513,-1.0495,-1.0493,-1.0491,-1.0462,-1.0455,-1.0428,-1.0415,-1.0402,-1.0412,-1.0402,-1.0418,-1.0415,-1.0433,-1.0432,-1.0494,-1.0501,-1.0432,-1.0433,-1.0433,0,-1.0623,-1.0626,-1.0598,-1.0595,-1.0584,-1.0578,-1.0572,-1.0542,-1.0537,-1.0517,-1.0521,-1.0511,-1.0503,-1.0494,-1.0471,-1.0462,-1.0451,-1.0473,-1.0449,-1.0457,-1.0451,-1.0452,-1.0452,-1.0479,-1.0479,-1.048,-1.0481,0,-1.0678,-1.0665,-1.0657,-1.0645,-1.0639,-1.0628,-1.0615,-1.0614,-1.0581,-1.0577,-1.0569,-1.0563,-1.0549,-1.0541,-1.0528,-1.0515,-1.0493,-1.0489,-1.0492,-1.05,-1.051,-1.0506,-1.0433,-1.0487,-1.0487,-1.0486,-1.0486,-1.0486,-1.0723,-1.0725,-1.0706,-1.0698,-1.0685,-1.0674,-1.0673,-1.0655,-1.0648,-1.0635,-1.0618,-1.0613,-1.0595,-1.0575,-1.0564,-1.056,-1.0548,-1.0553,-1.0554,-1.0556,-1.056,-1.0511,-1.0558,-1.0558,-1.0557,-1.0557,-1.0557,0,-1.0778,-1.0763,-1.0757,-1.074,-1.0734,-1.0713,-1.0698,-1.0695,-1.0691,-1.0676,-1.0668,-1.066,-1.0652,-1.063,-1.062,-1.0621,-1.0611,-1.0619,-1.0619,-1.0617,-1.0571,-1.057,-1.0628,-1.0628,-1.0628,-1.0628,-1.0628,-1.0628,-1.0805,-1.0808,-1.0793,-1.0789,-1.0774,-1.0769,-1.0763,-1.0753,-1.0741,-1.0733,-1.0726,-1.0711,-1.0694,-1.0682,-1.0674,-1.0668,-1.0666,-1.0678,-1.0668,-1.0627,-1.062,-1.0613,-1.0612,-1.0678,-1.0678,-1.0714,-1.0714,-1.0715]},{"header":{"parameterUnit":"m.s-1","parameterCategory":1,"la1":30.2991,"la2":30.254,"lo1":-89.0895,"lo2":-89.0444,"dy":0.0017,"dx":0.0017,"nx":28,"ny":28,"refTime":"2024-08-16T03:00:00:Z","depth":0,"parameterNumber":3,"parameterNumberName":"V-component_of_WINDS"},"data":[0,0,0,0,0,0,0,0,0,0,0,0,0,0,0,0,0,0,0,0,0,0,0,0,0,0,0,0,0,0,0,0,0,0,0,0,0,0,0,0,0,0,0,0,0,0,0,0,0,0,0,0,0,0,0,0,0,0,3.8949,3.8948,0,3.8943,3.8943,3.8943,3.8919,3.8918,3.8917,3.8917,3.8911,3.8912,3.8912,0,0,0,0,0,0,0,0,0,0,0,0,0,3.8939,3.894,3.8949,3.8948,3.8948,3.8943,3.8943,3.8943,3.8919,3.8918,3.8917,3.8917,3.8911,3.8912,3.8912,0,0,0,0,0,0,0,0,0,0,0,0,0,3.8939,3.894,3.8949,3.8936,3.8935,3.8943,3.8943,3.8943,3.8919,3.8918,3.8917,3.8916,3.8911,3.8912,3.8912,3.8933,0,0,3.8914,3.8914,0,0,0,0,0,0,0,0,3.8939,3.894,3.8938,3.8937,3.8935,3.8931,3.8937,3.8939,3.8919,3.8925,3.8917,3.8916,3.8919,3.8918,3.8919,3.8932,3.8932,3.8914,3.8914,3.8915,3.8915,0,0,0,0,0,0,0,3.894,3.894,3.8946,3.8938,3.8936,3.893,3.893,3.8938,3.8926,3.8924,3.8922,3.8922,3.8918,3.8919,3.8919,3.8932,3.8914,3.8915,3.8915,3.8915,3.8961,3.8962,0,0,0,0,0,0,3.8941,3.894,3.8946,3.8946,3.8935,3.8931,3.893,3.8933,3.8926,3.8924,3.8923,3.8921,3.8918,3.8918,3.8919,3.8941,3.8915,3.8915,3.8915,3.896,3.8962,3.8962,0,0,0,0,0,0,3.8941,3.8942,3.8947,3.8943,3.8943,3.8932,3.8936,3.8933,3.8934,3.8925,3.8923,3.8926,3.8917,3.8918,3.8929,3.8941,3.8915,3.8916,3.8959,3.8961,3.8962,3.8988,0,0,0,0,0,0,3.8941,3.8942,3.895,3.8943,3.8943,3.8957,3.8936,3.8934,3.8935,3.8933,3.8927,3.8926,3.8917,3.8928,3.893,3.8941,3.8916,3.8958,3.896,3.8962,3.8986,3.899,3.8993,0,0,0,0,0,3.8941,3.8957,3.895,3.8951,3.8952,3.8958,3.8958,3.8947,3.8936,3.8944,3.8938,3.8926,3.894,3.893,3.8931,3.8943,3.8957,3.896,3.8961,3.8984,3.8989,3.8993,0,0,0,0,0,0,3.8965,3.8956,3.8948,3.8963,3.8961,3.8954,3.8963,3.8953,3.8955,3.8952,3.8939,3.8938,3.8951,3.8948,3.8938,3.8962,3.8947,3.8949,3.8963,3.8968,3.8972,3.8972,3.8917,0,0,0,0,0,3.8973,3.8978,3.897,3.8983,3.8983,3.8973,3.8975,3.8967,3.8965,3.8965,3.896,3.8958,3.8962,3.8965,3.8968,3.8986,3.8984,3.8994,3.8998,3.9001,3.9003,3.9012,3.9016,3.8969,3.8969,3.8969,0,0,3.8987,3.8983,3.8987,3.8988,3.8986,3.8992,3.8973,3.898,3.8984,3.8966,3.8976,3.8972,3.897,3.8984,3.899,3.8982,3.9016,3.9004,3.9006,3.9006,3.9014,3.9019,3.9023,3.897,3.897,3.897,0,0,3.9017,3.9015,3.9026,3.9024,3.9021,3.9015,3.9017,3.9011,3.9008,3.9018,3.9005,3.901,3.9017,3.9016,3.9016,3.9046,3.9035,3.9048,3.9067,3.9075,3.9079,3.9082,3.9092,3.9096,3.905,3.905,3.905,0,3.9036,3.9044,3.9033,3.9041,3.9041,3.9025,3.9036,3.9035,3.9034,3.9035,3.9026,3.9034,3.9032,3.9045,3.9053,3.9054,3.9056,3.9048,3.9079,3.9082,3.9085,3.9095,3.9099,3.9051,3.9051,3.9051,3.9051,0,3.9067,3.9073,3.9082,3.9081,3.9083,3.9093,3.9083,3.9086,3.9078,3.9073,3.9083,3.908,3.9082,3.9084,3.9077,3.9097,3.9092,3.9082,3.9065,3.9091,3.91,3.9104,3.9053,3.9053,3.9052,3.9052,0,0,3.9111,3.9104,3.9107,3.9106,3.9102,3.9107,3.9116,3.9118,3.9121,3.9121,3.9127,3.9134,3.9124,3.9125,3.9117,3.9125,3.9148,3.9113,3.9113,3.9119,3.917,3.9177,3.9182,3.9141,3.9142,3.9142,3.917,0,3.9139,3.9154,3.9144,3.916,3.9165,3.915,3.9158,3.9156,3.9152,3.9155,3.915,3.9155,3.9142,3.9142,3.9149,3.9144,3.9158,3.9142,3.9147,3.9148,3.9147,3.9186,3.9194,3.922,3.9173,3.9174,3.9174,0,3.9173,3.9174,3.9191,3.9186,3.9187,3.9195,3.9195,3.92,3.9198,3.9194,3.9194,3.9185,3.9193,3.9178,3.919,3.9179,3.9181,3.9179,3.9179,3.9179,3.9162,3.9186,3.9228,3.9231,3.9179,3.9179,3.9179,0,3.9203,3.9209,3.9219,3.9219,3.9213,3.9219,3.9217,3.9214,3.9216,3.9217,3.9218,3.922,3.9221,3.9223,3.9214,3.9204,3.9227,3.9211,3.9223,3.9224,3.9228,3.9228,3.927,3.9231,3.9231,3.9231,3.9231,0,3.9235,3.9245,3.9232,3.9239,3.925,3.9239,3.9251,3.9247,3.9245,3.9251,3.9238,3.9244,3.9232,3.9237,3.923,3.924,3.9241,3.9238,3.9236,3.9238,3.9239,3.9239,3.9236,3.9232,3.9231,3.9231,3.9231,0,3.9269,3.9261,3.9272,3.9266,3.9264,3.9273,3.9268,3.9274,3.9268,3.9275,3.9276,3.9268,3.9273,3.9264,3.9268,3.9263,3.9278,3.9273,3.9278,3.9276,3.9289,3.9288,3.9332,3.9337,3.9296,3.9296,3.9296,0,3.9289,3.9297,3.9292,3.9295,3.9293,3.9298,3.93,3.9289,3.9292,3.929,3.9296,3.93,3.9302,3.931,3.9304,3.9307,3.9302,3.9317,3.9302,3.9304,3.9301,3.93,3.9301,3.932,3.9321,3.9321,3.9321,0,3.9326,3.9322,3.9324,3.9326,3.9328,3.9329,3.9329,3.9332,3.9321,3.9325,3.9329,3.9331,3.9334,3.9338,3.9339,3.9337,3.9328,3.9326,3.9329,3.9332,3.9334,3.9332,3.9286,3.9325,3.9325,3.9325,3.9324,3.9324,3.9353,3.9359,3.9357,3.936,3.9359,3.9359,3.9364,3.936,3.9363,3.9365,3.9359,3.9365,3.9363,3.9364,3.9363,3.9367,3.9361,3.9365,3.9366,3.9367,3.9368,3.9334,3.9368,3.9368,3.9368,3.9367,3.9367,0,3.9388,3.9386,3.939,3.939,3.9393,3.9384,3.9383,3.9386,3.9391,3.939,3.9393,3.9398,3.9401,3.9396,3.9399,3.9403,3.9399,3.9404,3.9403,3.9403,3.9375,3.9372,3.9408,3.9408,3.9408,3.9408,3.9408,3.9408,3.9407,3.9417,3.9412,3.9421,3.9419,3.9424,3.9425,3.9425,3.9424,3.943,3.9433,3.9429,3.9427,3.9429,3.9432,3.943,3.9432,3.9438,3.9435,3.9409,3.9405,3.9401,3.9398,3.9439,3.9439,3.9463,3.9463,3.9463]}]]